[[{"header":{"parameterUnit":"m.s-1","parameterCategory":1,"la1":30.2991,"la2":30.254,"lo1":-89.0895,"lo2":-89.0444,"dy":0.0017,"dx":0.0017,"nx":28,"ny":28,"refTime":"2024-07-03T09:00:00:Z","depth":0,"parameterNumber":2,"parameterNumberName":"U-component_of_WINDS"},"data":[0,0,0,0,0,0,0,0,0,0,0,0,0,0,0,0,0,0,0,0,0,0,0,0,0,0,0,0,0,0,0,0,0,0,0,0,0,0,0,0,0,0,0,0,0,0,0,0,0,0,0,0,0,0,0,0,0,0,-0.8906,-0.8905,0,-0.8778,-0.8776,-0.8775,-0.8751,-0.8752,-0.8753,-0.8754,-0.8616,-0.8611,-0.8607,0,0,0,0,0,0,0,0,0,0,0,0,0,-0.9127,-0.9123,-0.8907,-0.8905,-0.8903,-0.8778,-0.8776,-0.8774,-0.875,-0.8752,-0.8753,-0.8754,-0.8617,-0.8612,-0.8606,0,0,0,0,0,0,0,0,0,0,0,0,0,-0.9018,-0.9122,-0.8907,-0.8876,-0.8872,-0.8778,-0.8776,-0.8774,-0.875,-0.8752,-0.8753,-0.8755,-0.8619,-0.8612,-0.8605,-0.8531,0,0,-0.8584,-0.8581,0,0,0,0,0,0,0,0,-0.9024,-0.901,-0.8882,-0.8878,-0.8874,-0.8782,-0.8803,-0.8692,-0.875,-0.8796,-0.8754,-0.8755,-0.8669,-0.8658,-0.863,-0.8524,-0.8518,-0.8583,-0.8579,-0.8576,-0.8574,0,0,0,0,0,0,0,-0.9032,-0.9015,-0.8855,-0.8881,-0.8875,-0.8868,-0.8854,-0.8782,-0.8725,-0.8792,-0.879,-0.8776,-0.8667,-0.8637,-0.8627,-0.8516,-0.8584,-0.8577,-0.8573,-0.857,-0.8342,-0.834,0,0,0,0,0,0,-0.9046,-0.9022,-0.8859,-0.8851,-0.8955,-0.8862,-0.8847,-0.881,-0.8726,-0.8715,-0.8775,-0.8775,-0.8648,-0.8635,-0.8622,-0.8529,-0.8576,-0.857,-0.8566,-0.8344,-0.8341,-0.8339,0,0,0,0,0,0,-0.905,-0.9031,-0.8865,-0.8936,-0.8914,-0.8857,-0.8815,-0.8806,-0.8776,-0.8713,-0.8702,-0.8755,-0.8649,-0.8632,-0.8554,-0.8524,-0.8567,-0.856,-0.8346,-0.8343,-0.834,-0.8342,0,0,0,0,0,0,-0.9057,-0.9033,-0.9005,-0.8936,-0.8911,-0.88,-0.8813,-0.8803,-0.8765,-0.8765,-0.8691,-0.868,-0.8649,-0.8565,-0.8547,-0.8515,-0.8555,-0.8348,-0.8345,-0.8341,-0.8344,-0.8339,-0.8335,0,0,0,0,0,-0.9065,-0.9009,-0.9004,-0.8984,-0.8875,-0.8798,-0.8784,-0.875,-0.8763,-0.8733,-0.8693,-0.8683,-0.853,-0.8557,-0.8537,-0.8502,-0.835,-0.8346,-0.8342,-0.8346,-0.834,-0.8335,0,0,0,0,0,0,-0.9074,-0.9,-0.8993,-0.8913,-0.8863,-0.8794,-0.8756,-0.8745,-0.8688,-0.869,-0.8649,-0.8633,-0.8557,-0.8522,-0.8553,-0.8425,-0.8441,-0.8432,-0.8451,-0.8445,-0.844,-0.845,-0.8549,0,0,0,0,0,-0.9068,-0.9014,-0.8951,-0.8887,-0.8862,-0.8814,-0.8779,-0.8758,-0.8703,-0.8681,-0.8634,-0.858,-0.8519,-0.848,-0.8421,-0.8339,-0.8322,-0.8306,-0.8301,-0.8298,-0.829,-0.8244,-0.8236,-0.8325,-0.8325,-0.8326,0,0,-0.9052,-0.9005,-0.8973,-0.8887,-0.8846,-0.8789,-0.8795,-0.8735,-0.8692,-0.8671,-0.8595,-0.8559,-0.8495,-0.8415,-0.8377,-0.8383,-0.8262,-0.8292,-0.829,-0.8284,-0.8239,-0.823,-0.8223,-0.8323,-0.8323,-0.8324,0,0,-0.8995,-0.8955,-0.8897,-0.8856,-0.8793,-0.8762,-0.8748,-0.8682,-0.8658,-0.8581,-0.8564,-0.8512,-0.8409,-0.8365,-0.8328,-0.8257,-0.8245,-0.8239,-0.8214,-0.817,-0.8163,-0.8156,-0.8129,-0.812,-0.8232,-0.8232,-0.8232,0,-0.8983,-0.8899,-0.8868,-0.8809,-0.8772,-0.8753,-0.8693,-0.8654,-0.8574,-0.8548,-0.8557,-0.8428,-0.8384,-0.8293,-0.8275,-0.8247,-0.8229,-0.8246,-0.8167,-0.816,-0.8153,-0.8127,-0.8117,-0.8231,-0.8231,-0.8231,-0.8231,0,-0.8888,-0.8829,-0.879,-0.8717,-0.8675,-0.8616,-0.8574,-0.8535,-0.8519,-0.8486,-0.8408,-0.8355,-0.8285,-0.8262,-0.8244,-0.8168,-0.8174,-0.8175,-0.8189,-0.8145,-0.8119,-0.8109,-0.8231,-0.8231,-0.8231,-0.8231,0,0,-0.8831,-0.8743,-0.8728,-0.8695,-0.8625,-0.8579,-0.8519,-0.8453,-0.842,-0.8366,-0.8314,-0.8228,-0.8229,-0.8188,-0.8165,-0.8126,-0.8072,-0.8132,-0.813,-0.8122,-0.7984,-0.7983,-0.7972,-0.8065,-0.8063,-0.8061,-0.7989,0,-0.8765,-0.8659,-0.863,-0.8539,-0.8485,-0.8467,-0.8414,-0.8365,-0.8333,-0.8281,-0.8245,-0.8185,-0.8192,-0.8167,-0.8128,-0.8087,-0.8043,-0.8092,-0.8014,-0.8011,-0.8029,-0.7959,-0.7957,-0.7891,-0.7979,-0.7978,-0.7976,0,-0.8673,-0.862,-0.8525,-0.8463,-0.8439,-0.8393,-0.833,-0.8281,-0.8225,-0.8204,-0.816,-0.8141,-0.8076,-0.8096,-0.8005,-0.8039,-0.8005,-0.7981,-0.7977,-0.7967,-0.799,-0.7946,-0.787,-0.7859,-0.7961,-0.7962,-0.7963,0,-0.864,-0.8545,-0.8476,-0.8448,-0.8374,-0.8342,-0.8309,-0.8255,-0.8217,-0.8162,-0.8137,-0.8074,-0.8039,-0.799,-0.7954,-0.7972,-0.7866,-0.7883,-0.7846,-0.7847,-0.7823,-0.7825,-0.7739,-0.7804,-0.7804,-0.7804,-0.7805,0,-0.8568,-0.8511,-0.846,-0.8417,-0.8352,-0.8319,-0.8254,-0.8221,-0.8173,-0.8122,-0.8102,-0.8055,-0.8011,-0.7957,-0.7929,-0.7857,-0.7842,-0.7822,-0.7815,-0.7823,-0.7826,-0.7799,-0.7802,-0.7802,-0.7802,-0.7803,-0.7803,0,-0.852,-0.8484,-0.8407,-0.8345,-0.8328,-0.8282,-0.8228,-0.8185,-0.8154,-0.809,-0.8073,-0.8022,-0.7958,-0.7918,-0.7836,-0.7817,-0.7738,-0.7733,-0.7758,-0.7754,-0.7719,-0.7722,-0.7612,-0.7595,-0.7673,-0.7672,-0.7672,0,-0.8476,-0.8431,-0.8365,-0.8331,-0.8298,-0.8243,-0.8205,-0.8171,-0.8132,-0.8066,-0.803,-0.7966,-0.7912,-0.781,-0.7765,-0.7702,-0.7694,-0.766,-0.7684,-0.7694,-0.7692,-0.7694,-0.7689,-0.7655,-0.7654,-0.7654,-0.7653,0,-0.8401,-0.8386,-0.8333,-0.8274,-0.823,-0.8181,-0.8132,-0.8105,-0.8062,-0.8019,-0.7955,-0.7913,-0.7831,-0.7766,-0.7699,-0.7664,-0.7651,-0.7647,-0.7634,-0.7641,-0.7657,-0.7647,-0.7745,-0.7649,-0.7649,-0.765,-0.765,-0.765,-0.8352,-0.8311,-0.8259,-0.8201,-0.8161,-0.8116,-0.8073,-0.8038,-0.7984,-0.7915,-0.7898,-0.783,-0.7775,-0.7685,-0.7648,-0.7593,-0.7598,-0.7581,-0.7576,-0.7572,-0.757,-0.7668,-0.7581,-0.7581,-0.7581,-0.7581,-0.7582,0,-0.8275,-0.8241,-0.8188,-0.8122,-0.8076,-0.8071,-0.8017,-0.7978,-0.7919,-0.787,-0.7818,-0.7744,-0.7681,-0.7633,-0.7568,-0.7533,-0.7526,-0.7517,-0.7518,-0.751,-0.7571,-0.7587,-0.7525,-0.7525,-0.7525,-0.7525,-0.7525,-0.7525,-0.8229,-0.8161,-0.814,-0.8051,-0.8017,-0.7952,-0.7921,-0.788,-0.784,-0.7759,-0.7708,-0.7677,-0.7628,-0.756,-0.7502,-0.7489,-0.7465,-0.7458,-0.7443,-0.75,-0.7506,-0.7512,-0.7527,-0.7453,-0.7453,-0.7387,-0.7387,-0.7386]},{"header":{"parameterUnit":"m.s-1","parameterCategory":1,"la1":30.2991,"la2":30.254,"lo1":-89.0895,"lo2":-89.0444,"dy":0.0017,"dx":0.0017,"nx":28,"ny":28,"refTime":"2024-07-03T09:00:00:Z","depth":0,"parameterNumber":3,"parameterNumberName":"V-component_of_WINDS"},"data":[0,0,0,0,0,0,0,0,0,0,0,0,0,0,0,0,0,0,0,0,0,0,0,0,0,0,0,0,0,0,0,0,0,0,0,0,0,0,0,0,0,0,0,0,0,0,0,0,0,0,0,0,0,0,0,0,0,0,2.5683,2.5683,0,2.5685,2.5685,2.5685,2.5636,2.5635,2.5634,2.5633,2.5636,2.5637,2.5638,0,0,0,0,0,0,0,0,0,0,0,0,0,2.5639,2.564,2.5683,2.5683,2.5683,2.5685,2.5685,2.5685,2.5637,2.5635,2.5633,2.5632,2.5635,2.5637,2.5638,0,0,0,0,0,0,0,0,0,0,0,0,0,2.5651,2.564,2.5683,2.5659,2.5657,2.5685,2.5685,2.5685,2.5637,2.5635,2.5633,2.5631,2.5635,2.5637,2.5639,2.569,0,0,2.5645,2.5645,0,0,0,0,0,0,0,0,2.5651,2.5653,2.5662,2.5661,2.5658,2.5658,2.5671,2.5687,2.5637,2.5645,2.5632,2.563,2.5645,2.5646,2.5651,2.569,2.5691,2.5645,2.5646,2.5647,2.5647,0,0,0,0,0,0,0,2.565,2.5653,2.5684,2.5663,2.566,2.5649,2.5649,2.5674,2.5656,2.5644,2.564,2.5641,2.5643,2.5649,2.565,2.5691,2.5645,2.5646,2.5648,2.5648,2.5776,2.5778,0,0,0,0,0,0,2.5652,2.5652,2.5684,2.5684,2.565,2.5651,2.5651,2.566,2.5655,2.5653,2.5643,2.5639,2.5647,2.5648,2.565,2.5712,2.5647,2.5649,2.565,2.5774,2.5777,2.5779,0,0,0,0,0,0,2.5651,2.5655,2.5684,2.5667,2.567,2.5654,2.5665,2.5662,2.5667,2.5655,2.5651,2.5652,2.5645,2.5648,2.5681,2.5712,2.565,2.5651,2.5771,2.5775,2.5778,2.5836,0,0,0,0,0,0,2.565,2.5655,2.5674,2.5668,2.5671,2.5714,2.5667,2.5663,2.567,2.5665,2.5662,2.566,2.5644,2.5679,2.5683,2.5713,2.5653,2.5768,2.5773,2.5777,2.5831,2.5841,2.5849,0,0,0,0,0,2.5649,2.569,2.5675,2.5679,2.5694,2.5716,2.5717,2.5698,2.5673,2.5692,2.5685,2.566,2.5708,2.5683,2.5687,2.5718,2.5766,2.5772,2.5776,2.5827,2.5839,2.5849,0,0,0,0,0,0,2.5699,2.5688,2.5672,2.5712,2.5715,2.5707,2.5731,2.5711,2.5721,2.5716,2.5692,2.5692,2.573,2.5727,2.5699,2.577,2.5733,2.5739,2.577,2.5781,2.5789,2.5789,2.5654,0,0,0,0,0,2.5715,2.5733,2.5723,2.5759,2.5762,2.5746,2.5755,2.574,2.5742,2.5744,2.5738,2.5742,2.5758,2.5769,2.5783,2.5831,2.5831,2.5855,2.5864,2.5871,2.5877,2.5904,2.5915,2.5795,2.5795,2.5795,0,0,2.5747,2.5744,2.5756,2.5769,2.577,2.579,2.5747,2.577,2.5785,2.5747,2.5779,2.5776,2.5779,2.582,2.5838,2.5819,2.591,2.5877,2.5883,2.5885,2.5911,2.5922,2.5932,2.5799,2.5798,2.5798,0,0,2.5817,2.5816,2.5847,2.5849,2.5851,2.5841,2.5849,2.5845,2.5842,2.5873,2.5846,2.5864,2.5892,2.5896,2.5901,2.5977,2.5955,2.5982,2.6028,2.6055,2.6065,2.6073,2.6102,2.6112,2.5988,2.5988,2.5988,0,2.5857,2.5886,2.5865,2.5891,2.5898,2.5865,2.5898,2.5901,2.5908,2.5914,2.5893,2.5929,2.5928,2.5972,2.5991,2.5996,2.6005,2.5982,2.6065,2.6073,2.6081,2.6108,2.6118,2.5991,2.5991,2.599,2.599,0,2.5937,2.5958,2.5983,2.5991,2.6001,2.603,2.6015,2.6028,2.6013,2.6006,2.604,2.6039,2.6053,2.6063,2.6048,2.6105,2.6093,2.6069,2.6032,2.6096,2.6121,2.6131,2.5996,2.5995,2.5994,2.5993,0,0,2.6036,2.6035,2.6044,2.6049,2.605,2.6066,2.6095,2.6109,2.6122,2.6129,2.6153,2.6179,2.6158,2.6164,2.615,2.6174,2.6236,2.6147,2.6147,2.6165,2.6301,2.632,2.6332,2.6222,2.6223,2.6225,2.6301,0,2.6105,2.6153,2.6137,2.6186,2.6207,2.6177,2.6202,2.6207,2.6202,2.6219,2.6213,2.6233,2.6202,2.6206,2.6229,2.6224,2.6263,2.6218,2.6245,2.6247,2.6246,2.6345,2.6364,2.6436,2.6311,2.6313,2.6314,0,2.6191,2.6203,2.6255,2.6255,2.6263,2.6286,2.6299,2.6316,2.6321,2.6316,2.6325,2.6307,2.6337,2.63,2.6341,2.6311,2.6322,2.6321,2.6324,2.6326,2.6284,2.6351,2.6458,2.647,2.6329,2.6327,2.6326,0,2.6261,2.6289,2.6324,2.6329,2.633,2.6347,2.6349,2.6352,2.6363,2.6375,2.6382,2.6398,2.6406,2.6419,2.6407,2.638,2.6451,2.6412,2.6449,2.6449,2.6465,2.6464,2.6577,2.6471,2.6471,2.647,2.647,0,2.634,2.6373,2.6356,2.6377,2.6415,2.6396,2.6434,2.6432,2.6436,2.6458,2.6434,2.6455,2.6436,2.6457,2.6447,2.6484,2.6488,2.6486,2.6483,2.6488,2.6489,2.6495,2.649,2.6473,2.6473,2.6472,2.6472,0,2.6423,2.6413,2.645,2.6449,2.6449,2.6477,2.6477,2.6498,2.6492,2.652,2.6526,2.6517,2.654,2.6528,2.6551,2.6545,2.6594,2.6584,2.6592,2.659,2.6628,2.6625,2.6749,2.6765,2.6648,2.6649,2.665,0,2.6474,2.65,2.6502,2.6515,2.6519,2.654,2.6551,2.6535,2.6548,2.6559,2.6579,2.66,2.6615,2.6654,2.665,2.6669,2.6659,2.6702,2.6662,2.6668,2.6662,2.6661,2.6664,2.671,2.6711,2.6712,2.6713,0,2.6567,2.6562,2.6579,2.6596,2.661,2.6622,2.6632,2.6645,2.6629,2.6646,2.6669,2.6682,2.6707,2.6729,2.6746,2.6748,2.6729,2.6726,2.6736,2.6742,2.6746,2.6746,2.6615,2.6723,2.6722,2.6721,2.6721,2.672,2.6637,2.6659,2.6665,2.6686,2.6692,2.6703,2.6724,2.6721,2.674,2.676,2.6749,2.6778,2.6785,2.6806,2.6812,2.6834,2.6818,2.6831,2.6835,2.6839,2.6845,2.6742,2.6837,2.6837,2.6837,2.6836,2.6836,0,2.673,2.6733,2.6752,2.6768,2.6786,2.6766,2.6777,2.6793,2.6818,2.6827,2.6844,2.6872,2.6894,2.6893,2.6914,2.6932,2.6924,2.6938,2.6937,2.6939,2.6857,2.6848,2.6945,2.6945,2.6945,2.6945,2.6945,2.6945,2.678,2.6817,2.6813,2.6854,2.6857,2.6884,2.6893,2.6903,2.691,2.6943,2.6962,2.6961,2.6967,2.6988,2.7008,2.7007,2.7017,2.7034,2.7031,2.6955,2.6944,2.6934,2.6924,2.7036,2.7036,2.711,2.7111,2.7111]}]]